Location: Unspecified
(0.0000°N, 0.0000°E)
Time: 05:35:39
(UTC+00:00)

CERISE - Pass Details

Date: 18 May 2026
Orbit: 458 x 464 km, 98.3° (Epoch: 8 June)

Event Time Altitude Azimuth Distance (km) Brightness Sun altitude
Rises 19:49:18 0° 4° (N) 2,487 9.9 -26.4°
Reaches altitude 10° 19:51:22 10° 359° (N) 1,614 8.9 -26.9°
Enters shadow 19:51:39 12° 358° (N) 1,501 8.8 -27.0°
